This is the latest recevied weather packets stored in our database for station/object W5TUX. If no packets are shown the sender has not sent any weather packets the latest 1 day(s).
| Time | Temp. | Humidity | Pressure | Rain* | Wind** | Luminosity | Snow |
|---|---|---|---|---|---|---|---|
| 1778010187 | 30° C | 60% | 1009.8 hPa | 0 mm | 1.34 m/s, 165° | 578 W/m² | - |
| 1778009882 | 30° C | 60% | 1009.9 hPa | 0 mm | 1.34 m/s, 243° | 476 W/m² | - |
| 1778009580 | 30° C | 61% | 1009.7 hPa | 0 mm | 1.79 m/s, 232° | 398 W/m² | - |
| 1778009278 | 30° C | 61% | 1009.7 hPa | 0 mm | 3.58 m/s, 204° | 736 W/m² | - |
| 1778008976 | 30° C | 62% | 1009.7 hPa | 0 mm | 2.24 m/s, 260° | 662 W/m² | - |
| 1778008674 | 30° C | 61% | 1009.8 hPa | 0 mm | 1.34 m/s, 273° | 614 W/m² | - |
| 1778008372 | 28.89° C | 62% | 1009.7 hPa | 0 mm | 2.24 m/s, 262° | 555 W/m² | - |
| 1778008068 | 28.89° C | 65% | 1009.7 hPa | 0 mm | 1.34 m/s, 188° | 430 W/m² | - |
| 1778007763 | 28.89° C | 64% | 1009.8 hPa | 0 mm | 1.79 m/s, 197° | 428 W/m² | - |
| 1778007460 | 28.89° C | 64% | 1010 hPa | 0 mm | 1.79 m/s, 234° | 350 W/m² | - |
| 1778007156 | 28.89° C | 64% | 1009.9 hPa | 0 mm | 1.34 m/s, 238° | 372 W/m² | - |
| 1778006852 | 28.89° C | 64% | 1009.8 hPa | 0 mm | 1.34 m/s, 191° | 332 W/m² | - |
| 1778006550 | 28.89° C | 65% | 1009.9 hPa | 0 mm | 1.34 m/s, 219° | 449 W/m² | - |
| 1778006246 | 28.89° C | 64% | 1010 hPa | 0 mm | 0.89 m/s, 231° | 316 W/m² | - |
| 1778005951 | 28.33° C | 67% | 1009.8 hPa | 0 mm | 1.34 m/s, 208° | 368 W/m² | - |
| 1778005640 | 28.33° C | 66% | 1010 hPa | 0 mm | 0.89 m/s, 217° | 369 W/m² | - |
| 1778005337 | 28.33° C | 66% | 1009.9 hPa | 0 mm | 1.79 m/s, 223° | 284 W/m² | - |
| 1778005033 | 27.78° C | 66% | 1010.2 hPa | 0 mm | 1.79 m/s, 214° | 234 W/m² | - |
| 1778004731 | 27.78° C | 66% | 1010.3 hPa | 0 mm | 2.68 m/s, 237° | 239 W/m² | - |
| 1778004427 | 28.33° C | 65% | 1010.2 hPa | 0 mm | 2.68 m/s, 227° | 311 W/m² | - |
| 1778004124 | 28.33° C | 66% | 1010 hPa | 0 mm | 1.34 m/s, 256° | 376 W/m² | - |
| 1778003820 | 27.78° C | 67% | 1009.9 hPa | 0 mm | 0.89 m/s, 233° | 473 W/m² | - |
| 1778003517 | 27.78° C | 67% | 1010 hPa | 0 mm | 1.34 m/s, 217° | 381 W/m² | - |
| 1778003213 | 27.78° C | 67% | 1010.2 hPa | 0 mm | 2.68 m/s, 228° | 341 W/m² | - |
| 1778002909 | 27.22° C | 68% | 1010.1 hPa | 0 mm | 2.68 m/s, 224° | 396 W/m² | - |
* Rain latest hour (hover to see other rain measurements)
** Current wind speed in m/s (hover to see current wind gust speed)